Regional Weather Roundup
Issued by NWS

Home | Current Version | Previous Version | Text Only | Print | Product List | Glossary On
Versions: 1 2 3 4 5 6 7 8 9 10 11 12 13 14 15 16 17 18 19 20 21 22 23 24 25 26 27 28 29 30 31 32 33 34 35 36 37 38 39 40 41 42 43 44 45 46 47 48 49 50
000
ASUS44 KJAN 040410
RWRMS

MISSISSIPPI HOURLY WEATHER ROUNDUP
NATIONAL WEATHER SERVICE JACKSON MS
1100 PM CDT TUE MAY 03 2016

NOTE: "FAIR: INDICATES FEW OR NO CLOUDS BELOW 12,000 FEET WITH NO
SIGNIFICANT WEATHER AND/OR OBSTRUCTIONS TO VISIBILITY.

MSZ001>002-007>008-010>013-018>021-025>028-034>036-040500-
NORTHWEST MISSISSIPPI

CITY           SKY/WX    TMP DP  RH WIND       PRES   REMARKS
BATESVILLE     FAIR      52  50  93 CALM      29.99S
CLEVELAND      FAIR      57  57 100 CALM      30.00S
GREENWOOD      CLEAR     53  49  86 CALM      29.99S
GREENVILLE     CLEAR     57  49  74 CALM      30.00S
OLIVE BRANCH   CLEAR     52  52 100 CALM      29.98S
OXFORD         FAIR      48  48 100 CALM      30.00R
TUNICA         CLEAR     54  50  87 CALM      29.99S
WINONA         FAIR      53  50  91 CALM      29.98S
$$

MSZ003>006-009-014>017-022>024-029>033-037>039-040500-
NORTHEAST MISSISSIPPI

CITY           SKY/WX    TMP DP  RH WIND       PRES   REMARKS
COLUMBUS AFB   NOT AVBL
CORINTH        FAIR      54  52  94 CALM      29.96S
GOLDN TRIANGLE CLEAR     57  48  72 NW5       29.96S
STARKVILLE     FAIR      54  50  87 CALM      29.96F
TUPELO         CLEAR     56  49  77 W3        29.96S
$$

MSZ040-058-040500-
CENTRAL MISSISSIPPI

CITY           SKY/WX    TMP DP  RH WIND       PRES   REMARKS
JACKSON INTL   CLEAR     59  51  75 N7        29.99R
JACKSON HAWKNS CLEAR     59  51  75 N5        30.00S
MADISON        FAIR      54  50  87 CALM      29.99S
MERIDIAN KEY   CLEAR     60  51  72 N7        29.96S
MERIDIAN NAS   CLEAR     60  51  72 NW9       29.96S
VICKSBURG TVR  CLEAR     62  52  69 N10       30.01S
VICKSBURG VKS  CLEAR     61  50  67 NE5       30.01S
$$

MSZ059>079-040500-
SOUTH MISSISSIPPI

CITY           SKY/WX    TMP DP  RH WIND       PRES   REMARKS
BROOKHAVEN     FAIR     N/A N/A N/A N6        30.00R
COLUMBIA       FAIR      61  55  82 N5        30.00S
HATTIESBURG    PTCLDY    65  54  67 N8        29.96S
MCCOMB         CLEAR     62  56  80 N7        29.98R
NATCHEZ        CLEAR     57  54  88 CALM      30.00S
PINE BELT      PTCLDY    63  52  67 N8        29.97S
$$

MSZ080>082-040500-
COASTAL MISSISSIPPI

CITY           SKY/WX    TMP DP  RH WIND       PRES   REMARKS
BILOXI         PTCLDY    68  67  96 N2        29.91F
PASCAGOULA     PTCLDY    65  64  97 CALM      29.92S
GULFPORT       PTCLDY    67  63  87 N8        29.91F
$$



USA.gov is the U.S. government's official web portal to all federal, state and local government web resources and services.